Location: Dry Creek
(38.4603°N, 99.0179°W)
Time: 18:26:52
(UTC+00:00)

Daily predictions for brighter satellites

Satellite Brightness Start Highest point End
(mag) Time Altitude Azimuth Time Altitude Azimuth Time Altitude Azimuth
Cosmos 1151 Rocket 3.3 12:02:08 10° S 12:06:26 74° E 12:10:46 10° N
CZ-4B R/B 1.1 12:04:04 10° S 12:07:13 72° WSW 12:10:20 10° NNW
Cosmos 1140 Rocket 4.3 12:02:52 10° S 12:07:56 55° ESE 12:13:02 10° NNE
SJ-12 4.2 12:05:18 10° N 12:09:10 43° WNW 12:13:00 10° SW
CENTAUR R/B 3.6 12:05:09 10° NNW 12:13:27 70° NE 12:22:22 10° SE
Cosmos 1933 3.5 12:11:28 10° SSW 12:15:21 49° W 12:19:17 10° N
NOSS 3-4 (A) 3.5 12:11:00 10° SSW 12:16:47 78° ESE 12:22:54 10° NE
Cosmos 2251 Rocket 4.1 12:11:56 10° SW 12:16:51 37° WNW 12:21:49 10° N
Cosmos 2333 4.2 12:11:03 10° NNW 12:16:52 83° WSW 12:22:37 10° SSE
NOSS 3-4 (C) 3.5 12:11:05 10° SSW 12:16:53 77° ESE 12:22:59 10° NE
Nadezhda 1 Rocket 4.5 12:12:12 10° S 12:18:12 65° E 12:24:18 10° NNE
YAOGAN 6 2.5 12:16:03 10° NNE 12:19:34 84° E 12:23:03 10° S
Meteor 1-26 Rocket 4.2 12:15:39 10° S 12:21:15 86° W 12:27:05 10° N
Cosmos 2360 Rocket 2.7 12:18:24 10° NW 12:23:35 38° WSW 12:28:44 10° S
NOSS 3-2 (C) 4.5 12:15:55 10° NNW 12:23:40 73° NE 12:32:18 10° SE
Cosmos 2237 Rocket 4.4 12:21:06 10° N 12:25:47 26° ENE 12:30:25 10° ESE
Cosmos 1689 Rocket 2.9 12:23:08 10° SSE 12:25:52 51° ENE 12:28:38 10° N
Cosmos 1515 Rocket 4.5 12:21:48 10° S 12:26:01 54° E 12:30:15 10° NNE
COSMOS 2487 3.7 12:24:31 10° WSW 12:27:10 21° WNW 12:29:50 10° NNW
CZ-4B R/B 3.4 12:25:19 10° N 12:29:39 48° WNW 12:33:58 10° SSW
Cosmos 1328 Rocket 3.4 12:26:30 10° SSW 12:30:47 70° W 12:35:05 10° N
ATLAS 2AS CENTAUR R/B 3.5 12:23:51 10° SSW 12:31:39 70° ESE 12:39:28 10° NE
COSMO-SKYMED 1 3.2 12:28:45 10° SSW 12:32:42 34° W 12:36:39 10° NNW
Cosmos 2333 Rocket 2.2 12:27:06 10° NNW 12:32:53 76° WSW 12:38:37 10° SSE
SeaSat 1 3.4 12:32:35 10° SSW 12:36:39 26° WSW 12:40:45 10° NW
CZ-2C R/B 3.5 12:31:22 10° SSE 12:36:51 59° ENE 12:42:22 10° N
Cosmos 1470 Rocket 3.9 12:34:05 10° N 12:38:27 73° E 12:42:45 10° SSE
Cosmos 2227 Rocket 4.2 12:36:14 10° SSE 12:41:18 35° ESE 12:46:23 10° NE
